Regional Weather Roundup
Issued by NWS

Home | Current Version | Previous Version | Graphics & Text | Print | Product List | Glossary On
Versions: 1 2 3 4 5 6 7 8 9 10 11 12 13 14 15 16 17 18 19 20 21 22 23 24 25 26 27 28 29 30 31 32 33 34 35 36 37 38 39 40 41 42 43 44 45 46 47 48 49 50
000
ASUS45 KCYS 221110
RWRWY

WYOMING REGIONAL WEATHER ROUNDUP
NATIONAL WEATHER SERVICE CHEYENNE WY
500 AM MDT MON SEP 22 2014

NOTE:  "FAIR" INDICATES FEW OR NO CLOUDS BELOW 12,000 FEET
WITH NO SIGNIFICANT WEATHER AND/OR OBSTRUCTIONS TO VISIBILITY.

WYZ001-221200-
YELLOWSTONE NATIONAL PARK

CITY           SKY/WX    TMP DP  RH WIND       PRES   REMARKS
LK YELLOWSTONE   N/A     47  46  97 CALM      30.30S
W YELLOWSTONE  NOT AVBL

$$
WYZ002>013-054>058-071-098>099-221200-
NORTHERN WYOMING

CITY           SKY/WX    TMP DP  RH WIND       PRES   REMARKS
JACKSON        CLOUDY    52  52 100 S7        30.24S
CODY             N/A    N/A N/A N/A MISG        N/A
GREYBULL       CLOUDY    59  47  64 SE5       30.03R
WORLAND        MOCLDY    62  45  53 CALM      30.03F
SHERIDAN       CLOUDY    53  46  77 NW5       30.03F
BUFFALO        CLOUDY    57  43  59 SE6       30.08R
GILLETTE       CLOUDY    57  40  52 S14       30.10F
HULETT         FAIR      64  39  39 MISG      30.11
NEWCASTLE      FAIR      61  36  39 SE15      30.16

$$
WYZ014>020-022>026-101>103-221200-
CENTRAL WYOMING

CITY           SKY/WX    TMP DP  RH WIND       PRES   REMARKS
BIG PINEY      CLOUDY    50  49  96 CALM      30.28S FOG
PINEDALE       MOSUNNY   45  45 100 CALM      30.29S
DUBOIS         FAIR      46  43  87 NW13      30.23S
LANDER         MOCLDY    52  43  71 S3        30.12S
RIVERTON       MOCLDY    53  44  71 W9        30.12S
CASPER         PTCLDY    48  39  71 NW3       30.15F
DOUGLAS        MOCLDY    55  40  56 SE12      30.16S

$$
WYZ021-027>030-104>119-221200-
SOUTHERN WYOMING

CITY           SKY/WX    TMP DP  RH WIND       PRES   REMARKS
EVANSTON       MOCLDY    47  44  90 CALM      30.26F
KEMMERER       DRZL/FOG  46  45  93 CALM      30.29F VSB 1/4
FORT BRIDGER   CLOUDY    47  47 100 NE5       30.30F
ROCK SPRINGS   FOG       47  46  97 SW3       30.27R VSB 1/4
DIXON          FAIR      47  45  93 NE5       30.29S
RAWLINS        PTCLDY    50  44  80 W3        30.26S
SARATOGA       FAIR      55  45  67 SE14G20   30.27S
LARAMIE        MOCLDY    52  45  77 S10       30.26S
CHEYENNE       CLOUDY    53  41  63 S8        30.24F
TORRINGTON     MOCLDY    58  41  53 SE10      30.15F
PINE BLUFFS    FAIR      54  39  58 S12       30.22F

$$


USA.gov is the U.S. government's official web portal to all federal, state and local government web resources and services.